Regional Weather Roundup
Issued by NWS

Home | Current Version | Previous Version | Text Only | Print | Product List | Glossary Off
Versions: 1 2 3 4 5 6 7 8 9 10 11 12 13 14 15 16 17 18 19 20 21 22 23 24 25 26 27 28 29 30 31 32 33 34 35 36 37 38 39 40 41 42 43 44 45 46 47 48 49 50

000
ASUS45 KABQ 220301
RWRNM
NEW MEXICO REGIONAL WEATHER ROUNDUP
NATIONAL WEATHER SERVICE ALBUQUERQUE NM
900 PM MDT MON AUG 21 2017

NOTE: "FAIR" MEANS FEW OR NO CLOUDS BELOW 12,000 FEET AGL WITH NO
       SIGNIFICANT WEATHER OR OBSTRUCTIONS TO VISION.

      THIS PRODUCT IS RELEASED AS TWO VERSIONS.  ONE VERSION NEAR
      THE TOP OF THE HOUR CONTAINING PRELIMINARY DATA FROM ALBUQUERQUE
      AND OTHER STATIONS.  A FINAL VERSION WITH ADDITIONAL DATA IS
      ISSUED ABOUT 10 MINUTES AFTER THE HOUR.

NMZ501-503-504-510>518-220400-
NORTHWEST PLATEAU/NORTHCENTRAL MOUNTAINS

CITY           SKY/WX    TMP DP  RH WIND       PRES   REMARKS
FARMINGTON     FAIR      71  46  40 N17G25    30.19R
LOS ALAMOS     CLOUDY    65  48  54 N17G28    30.36R
SANTA FE       MOCLDY    68  56  65 CALM      30.27R
TAOS           LGT RAIN  58  54  86 N12       30.39R
ANGEL FIRE     CLOUDY    53  51  92 SE5       30.46R

$$
NMZ402-403-502-505>509-220400-
WESTCENTRAL MOUNTAINS/SOUTHWEST MOUNTAINS

CITY           SKY/WX    TMP DP  RH WIND       PRES   REMARKS
GALLUP         FAIR      64  51  62 CALM      30.28R
GRANTS         FAIR      64  47  52 W6        30.31R
SILVER CITY    CLOUDY    71  56  59 CALM      30.22R

$$
NMZ407-409-411-412-220400-
SOUTHERN DESERTS

CITY           SKY/WX    TMP DP  RH WIND       PRES   REMARKS
DEMING         FAIR      77  63  61 S5        30.13R
LAS CRUCES     FAIR      75  63  67 SE3       30.16R
ALAMOGORDO     FAIR      75  59  57 S5        30.15R
T OR C         FAIR      79  57  46 S5        30.16R

$$
NMZ519>523-220400-
CENTRAL VALLEYS/CENTRAL HIGHLANDS

CITY           SKY/WX    TMP DP  RH WIND       PRES   REMARKS
ALBUQUERQUE    MOCLDY    74  57  55 SE5       30.21R
CLINES CORNERS FAIR      64  51  62 NW5       30.33R
BELEN          NOT AVBL
SOCORRO        NOT AVBL

$$
NMZ524>526-539-540-220400-
SOUTHCENTRAL MOUNTAINS

CITY           SKY/WX    TMP DP  RH WIND       PRES   REMARKS
RUIDOSO        FAIR      64  55  72 S7        30.35R

$$
NMZ527>531-220400-
NORTHEAST HIGHLANDS/NORTHEAST PLAINS

CITY           SKY/WX    TMP DP  RH WIND       PRES   REMARKS
LAS VEGAS      FAIR      59  54  83 N9        30.32R
RATON          MOCLDY    61  58  90 VRB3      30.30R
CLAYTON        FAIR      67  64  90 S10       30.18R

$$
NMZ532>537-220400-
EASTCENTRAL PLAINS

CITY           SKY/WX    TMP DP  RH WIND       PRES   REMARKS
SANTA ROSA     FAIR      67  64  90 SE5       30.17R
TUCUMCARI      FAIR      71  63  75 SW7       30.11R
CANNON AFB     NOT AVBL
CLOVIS AIRPORT FAIR      69  65  86 S3        30.17R

$$
NMZ028-029-538-220400-
SOUTHEAST PLAINS

CITY           SKY/WX    TMP DP  RH WIND       PRES   REMARKS
ROSWELL        FAIR      76  64  66 CALM      30.11R
ARTESIA        FAIR      77  66  69 SE9       30.11R
CARLSBAD       FAIR      75  69  81 S6        30.08R
HOBBS          FAIR      73  64  73 S5        30.13R


$$




USA.gov is the U.S. government's official web portal to all federal, state and local government web resources and services.